Location: Casone le Fosse
(44.6547°N, 12.1103°E)
Time: 10:56:23
(UTC+00:00)

Cosmos 968 Rocket - Pass Details

Date: 29 October 2020
Orbit: 741 x 770 km, 74.0° (Epoch: 27 November)

Event Time Altitude Azimuth Distance (km) Brightness Sun altitude
Rises 16:36:19 0° 345° (NNW) 3,239 6.8 -6.3°
Reaches altitude 10° 16:38:53 10° 353° (N) 2,304 5.9 -6.8°
Maximum altitude 16:43:44 38° 61° (ENE) 1,156 4.0 -7.6°
Drops below altitude 10° 16:48:31 10° 129° (SE) 2,272 5.6 -8.4°
Sets 16:51:01 0° 138° (SE) 3,187 6.4 -8.9°
